sat.trackr.live / text

‹ back to catalog

STARLINK-6277

NORAD 56399 · 2023-061AB

PAYLOAD ACTIVE UNKNOWN

§ Identity

Operator
Country
US
Launch date
2023-05-04
Launch site
AFETR
Launch vehicle
Mass (kg)
RCS (m²)

Purposes: comms

External: N2YO · Heavens-Above · Gunter

§ Orbital elements

Epoch: 2026-05-24T09:11:51.445248Z

Period
94.27 min
Inclination
43.0063°
Eccentricity
0.0002112
Mean motion
15.27558056 rev/d
Perigee alt
481.7 km
Apogee alt
484.6 km
Semi-major
6,861.3 km
B*
-5.2219e-5
RAAN
119.3387°
Arg perigee
306.5645°
Mean anomaly
53.5012°
Rev number
16,845

§ Raw data

STARLINK-62771 56399U 23061AB  26144.38323432 -.00001698  00000+0 -52219-4 0  99972 56399  43.0063 119.3387 0002112 306.5645  53.5012 15.27558056168451

JSON: /api/v1/satellites/56399 · /tle

For live sub-satellite position, see the globe view (requires WebGL).

§ Visibility from observer

Set your observer location to see the next 7 days of passes ≥ 10°. The values pass through the URL so the page stays shareable.

No JS? Fill the form by hand. The geolocation button needs JavaScript.